Home   Weather   Saint-Denis   Past weeks

Flag for France Past Weather in Saint-Denis, Île-de-France, France — Yesterday and Last 2 Weeks

52 °F


Feels Like: 52 °F
Forecast: 51 / 63 °F
Wind: 2 mph from North

Location: Paris Le Bourget Airport

Current Time: Oct 24, 2016 at 7:24:17 AM

Latest Report: Oct 24, 2016 at 7:00 AM

Visibility: 3 mi

Pressure: 29.77 "Hg

Humidity: 94%

Dew Point: 50 °F

Location of Saint-DenisLocation

Past Weather in Saint-Denis — Graph


Saint-Denis Temperature Yesterday

Maximum temperature yesterday: 55 °F (at 2:30 PM)
Minimum temperature yesterday: 39 °F (at 3:00 AM)
Average temperature yesterday: 47 °F

High & Low Weather Summary for the Past Weeks

High70 °F (Oct 16, 3:00 PM)100% (Oct 11, 5:00 AM)30.30 "Hg (Oct 11, 5:00 AM)
Low36 °F (Oct 10, 7:00 AM)39% (Oct 9, 2:30 PM)29.62 "Hg (Oct 14, 1:30 PM)
Average51 °F80%30.02 "Hg
* Reported Oct 9 6:00 AM — Oct 24 6:00 AM, Saint-Denis, Weather by CustomWeather, © 2016

Note: Actual official high and low records may vary slightly from our data, if they occured in-between our weather recording intervals... More about our weather records


Saint-Denis Weather History for the Previous 24 Hours

Scroll right to see more
Time TempWeatherWind HumidityBarometerVisibility
6:00 AM
Mon, Oct 24
52 °FLow clouds.No wind88%29.77 "Hg4 mi
5:30 AM52 °FLow clouds.2 mph94%29.77 "Hg4 mi
5:00 AM50 °FFog.2 mph94%29.77 "Hg3 mi
4:30 AM52 °FLow clouds.3 mph88%29.77 "Hg4 mi
4:00 AM52 °FFog.2 mph88%29.77 "Hg3 mi
3:30 AM52 °FLow clouds.3 mph88%29.77 "Hg4 mi
3:00 AM52 °FLow clouds.3 mph88%29.77 "Hg6 mi
2:30 AM50 °FLow clouds.2 mph94%29.77 "Hg6 mi
2:00 AM50 °FLow clouds.3 mph94%29.77 "Hg6 mi
1:30 AM50 °FLow clouds.3 mph94%29.77 "HgN/A
1:00 AM50 °FLow clouds.2 mph94%29.77 "HgN/A
12:30 AM50 °FLow clouds.3 mph94%29.77 "HgN/A
12:00 AM50 °FLow clouds.6 mph94%29.74 "HgN/A
11:30 PM
Sun, Oct 23
50 °FLow clouds.9 mph94%29.74 "HgN/A
11:00 PM50 °FLow clouds.7 mph94%29.74 "HgN/A
10:30 PM50 °FDrizzle. Fog.9 mph94%29.74 "Hg3 mi
10:00 PM50 °FLight rain. Mostly cloudy.8 mph94%29.74 "Hg4 mi
9:30 PM50 °FLight rain. Fog.8 mph94%29.77 "Hg2 mi
9:00 PM50 °FRain. Fog.3 mph94%29.77 "Hg2 mi
8:30 PM50 °FLight rain. Fog.10 mph94%29.74 "Hg3 mi
8:00 PM50 °FLight rain. Mostly cloudy.10 mph94%29.74 "Hg5 mi
7:30 PM50 °FRain. Fog.10 mph94%29.74 "Hg3 mi
7:00 PM50 °FRain. Fog.9 mph94%29.74 "Hg3 mi
6:30 PM52 °FHeavy rain. Fog.8 mph88%29.74 "Hg3 mi
6:00 PM52 °FLight rain. Cloudy.9 mph88%29.74 "Hg5 mi
5:30 PM52 °FRain. Cloudy.7 mph88%29.74 "Hg4 mi
5:00 PM52 °FLight rain. Cloudy.7 mph88%29.77 "HgN/A
4:30 PM54 °FRain. Cloudy.8 mph77%29.74 "HgN/A
4:00 PM55 °FCool.10 mph63%29.74 "HgN/A
3:30 PM55 °FSunny.12 mph63%29.74 "Hg10 mi
3:00 PM55 °FSunny.10 mph67%29.74 "Hg10 mi
2:30 PM55 °FSunny.13 mph63%29.74 "Hg10 mi
2:00 PM54 °FPassing clouds.12 mph67%29.77 "HgN/A
1:30 PM54 °FSunny.12 mph67%29.77 "Hg10 mi
1:00 PM52 °FSunny.14 mph67%29.77 "Hg10 mi
12:30 PM52 °FScattered clouds.13 mph67%29.80 "HgN/A
12:00 PM50 °FPassing clouds.13 mph76%29.80 "HgN/A
11:30 AM48 °FPartly sunny.12 mph82%29.80 "HgN/A
11:00 AM46 °FPartly sunny.10 mph87%29.80 "HgN/A
10:30 AM45 °FPartly sunny.10 mph93%29.83 "Hg6 mi
10:00 AM45 °FLow clouds.12 mph93%29.83 "Hg5 mi
9:30 AM45 °FLow clouds.9 mph87%29.83 "Hg4 mi
9:00 AM43 °FLow clouds.8 mph93%29.83 "Hg4 mi
8:30 AM43 °FFog.7 mph93%29.83 "Hg3 mi
8:00 AM43 °FLow clouds.9 mph93%29.83 "Hg4 mi
7:30 AM43 °FLow clouds.8 mph93%29.83 "Hg4 mi
7:00 AM43 °FFog.7 mph93%29.83 "Hg3 mi
Weather by CustomWeather, © 2016

See weather overviewHow to use our weather pages